Las Vegas, NV

12:31 AM PDT on October 19, 2017 (GMT -0700)
McCarran International

Weather History for KLAS - November, 2013

Change the Weather History Date:

Friday, November 1, 2013

  Actual Average Record
Temperature  
Mean Temperature 62 °F 63 °F  
Max Temperature 74 °F 73 °F 87 °F (1988)
Min Temperature 50 °F 52 °F 33 °F (1971)
Degree Days  
Heating Degree Days 3 4  
Month to date heating degree days 3 4  
Since 1 July heating degree days 50 43  
Cooling Degree Days 0 2  
Month to date cooling degree days 0 2  
Year to date cooling degree days 3761 3558  
Growing Degree Days 12 (Base 50)    
Moisture  
Dew Point 29 °F    
Average Humidity 29    
Maximum Humidity 39    
Minimum Humidity 19    
Precipitation  
Precipitation 0.00 in 0.01 in 0.71 in (1987)
Month to date precipitation 0.00 0.01  
Year to date precipitation 1.54 3.34  
Snow  
Snow 0.00 in 0.00 in 0.00 in ()
Month to date snowfall 0.0 0.0  
Since 1 July snowfall 0.0 0.0  
Since 1 September snowfall 0.0 0.0  
Snow Depth 0.00 in    
Sea Level Pressure  
Sea Level Pressure 30.11 in    
Wind  
Wind Speed 5 mph (SSW)    
Max Wind Speed 13 mph    
Max Gust Speed 14 mph    
Visibility 10 miles    
Events      
T = Trace of Precipitation, MM = Missing Value Source: NWS Daily Summary

Daily Weather History Graph

Daily Weather History Graph

Search for Another Location

Airport or City:

Trip Planner

Search our weather history database for the weather conditions in past years. The results will help you decide how hot, cold, wet, or windy it might be!

Date:

Astronomy

Nov. 01, 2013 Rise Set
Actual Time 7:03 AM PDT 5:44 PM PDT
Civil Twilight 6:36 AM PDT 6:10 PM PDT
Nautical Twilight 6:06 AM PDT 6:41 PM PDT
Astronomical Twilight 5:36 AM PDT 7:11 PM PDT
Moon 5:03 AM PDT (11/1) 4:37 PM PDT (11/1)
Length of Visible Light 11h 33m
Length of Day
10h 40m
Waning Crescent, 4% of the Moon is Illuminated
Nov 1
Waning Crescent
Nov 3
New
Nov 9
First Quarter
Nov 17
Full
Nov 25
Last Quarter

Hourly Weather History & Observations

Time (PDT) Temp. Dew Point Humidity Pressure Visibility Wind Dir Wind Speed Gust Speed Precip Events Conditions
12:56 AM 53.1 °F 27.0 °F 37% 30.09 in 10.0 mi SW 4.6 mph - N/A   Clear
1:56 AM 51.1 °F 27.0 °F 39% 30.10 in 10.0 mi SSW 8.1 mph - N/A   Clear
2:56 AM 51.1 °F 26.1 °F 38% 30.11 in 10.0 mi SSW 10.4 mph - N/A   Clear
3:56 AM 50.0 °F 26.1 °F 39% 30.11 in 10.0 mi SSW 10.4 mph - N/A   Clear
4:56 AM 51.1 °F 27.0 °F 39% 30.12 in 10.0 mi SW 8.1 mph - N/A   Clear
5:56 AM 52.0 °F 27.0 °F 38% 30.13 in 10.0 mi WNW 3.5 mph - N/A   Clear
6:56 AM 51.1 °F 27.0 °F 39% 30.14 in 10.0 mi SW 8.1 mph - N/A   Clear
7:56 AM 52.0 °F 27.0 °F 38% 30.18 in 10.0 mi SSW 10.4 mph - N/A   Clear
8:56 AM 57.9 °F 28.0 °F 32% 30.20 in 10.0 mi SSW 5.8 mph - N/A   Clear
9:56 AM 62.1 °F 28.0 °F 28% 30.19 in 10.0 mi South 3.5 mph - N/A   Clear
10:56 AM 64.9 °F 30.0 °F 27% 30.19 in 10.0 mi Calm Calm - N/A   Clear
11:56 AM 66.9 °F 30.9 °F 26% 30.18 in 10.0 mi South 4.6 mph - N/A   Clear
12:56 PM 69.1 °F 30.0 °F 23% 30.14 in 10.0 mi Calm Calm - N/A   Clear
1:56 PM 72.0 °F 28.9 °F 20% 30.11 in 10.0 mi Calm Calm - N/A   Clear
2:56 PM 73.0 °F 28.9 °F 20% 30.09 in 10.0 mi Calm Calm - N/A   Clear
3:56 PM 73.0 °F 28.9 °F 20% 30.07 in 10.0 mi Calm Calm - N/A   Clear
4:56 PM 72.0 °F 28.9 °F 20% 30.06 in 10.0 mi Calm Calm - N/A   Clear
5:56 PM 70.0 °F 28.9 °F 22% 30.06 in 10.0 mi Calm Calm - N/A   Clear
6:56 PM 66.9 °F 30.0 °F 25% 30.07 in 10.0 mi SSW 4.6 mph - N/A   Clear
7:56 PM 64.9 °F 30.9 °F 28% 30.08 in 10.0 mi SSW 5.8 mph - N/A   Clear
8:56 PM 61.0 °F 30.0 °F 31% 30.07 in 10.0 mi WSW 8.1 mph - N/A   Clear
9:56 PM 60.1 °F 30.0 °F 32% 30.08 in 10.0 mi SSW 6.9 mph - N/A   Clear
10:56 PM 57.0 °F 30.0 °F 36% 30.08 in 10.0 mi South 10.4 mph - N/A   Clear
11:56 PM 55.9 °F 30.0 °F 37% 30.06 in 10.0 mi SSW 6.9 mph - N/A   Clear